Terug naar catalogus

SL-8 DEB

ActiefLEO
NORAD 21115·DEBRIS·🇷🇺 Russia

Gelanceerd Feb 12, 1991 vanaf Plesetsk Cosmodrome

Loading…

Volgende Passages (komende 24 uur)

TLE

VersSource: Space-Track

Epoch: Sep 14, 2026, 05:53 UTC

1 21115U 91009M   26257.24554823 -.00000087  00000-0 -68343-3 0  9998
2 21115  74.0393 185.5534 0183557 274.8371 239.9261 12.16943311580017

Volg SL-8 DEB in realtime met AllMySat

Download on the App Store